W8KJR Weather Reports


time (UTC)temp
C
wind
direction
speed
KPH
gust
KPH
rain 1hr
cm
rain 24hr
cm
rain mn
cm
humidity
%
barometer
mb
20260504130400 14 312 0.0 1.6 0.00 0.00 0.00 65 1006.5
20260504110340 10 348 0.0 3.2 0.00 0.00 0.00 73 1006.6
20260504100326 10 46 0.0 6.4 0.00 0.00 0.00 70 1006.8
20260504081806 10 121 0.0 1.6 0.00 0.00 0.00 69 1007.6
20260504080301 10 91 0.0 1.6 0.00 0.00 0.00 68 1007.4
20260504070252 11 94 0.0 0.0 0.00 0.00 0.00 66 1008.2
20260504060241 11 124 0.0 1.6 0.00 0.00 0.00 62 1008.7
20260504050229 11 104 0.0 0.0 0.00 0.00 0.00 65 1009.8
20260504044725 10 123 0.0 0.0 0.00 0.00 0.00 68 1009.8
20260504043222 10 110 0.0 0.0 0.00 0.00 0.00 69 1009.8
20260504041718 10 353 0.0 0.0 0.00 0.00 0.00 70 1010.0
20260504040213 10 140 0.0 1.6 0.00 0.00 0.00 71 1010.1
20260504034710 10 125 1.6 1.6 0.00 0.00 0.00 72 1010.2
20260504033208 10 74 0.0 3.2 0.00 0.00 0.00 73 1010.2
20260504031705 10 139 0.0 1.6 0.00 0.00 0.00 73 1010.6
20260504030201 9 110 0.0 1.6 0.00 0.00 0.00 74 1010.5
20260504024657 9 24 0.0 1.6 0.00 0.00 0.00 74 1010.6
20260504023158 9 140 1.6 3.2 0.00 0.00 0.00 75 1010.7
20260504021654 9 147 1.6 3.2 0.00 0.00 0.00 74 1010.8
20260504020149 9 95 0.0 1.6 0.00 0.00 0.00 75 1010.9
20260504014650 10 118 0.0 1.6 0.00 0.00 0.00 74 1010.9
20260504013148 10 123 0.0 0.0 0.00 0.00 0.00 73 1010.9
20260504011645 10 105 0.0 0.0 0.00 0.00 0.00 73 1011.1
20260504010145 10 82 0.0 0.0 0.00 0.00 0.00 72 1011.0
20260504004643 10 129 0.0 0.0 0.00 0.00 0.00 71 1011.0
20260504003139 10 128 0.0 0.0 0.00 0.00 0.00 71 1011.2
20260504001637 10 110 1.6 1.6 0.00 0.00 0.00 69 1011.2
20260504000133 11 106 0.0 0.0 0.00 0.00 0.00 68 1011.1
20260503234631 11 207 0.0 0.0 0.00 0.00 0.00 67 1011.3
20260503233127 11 7 0.0 4.8 0.00 0.00 0.00 66 1011.8
20260503231626 11 104 0.0 1.6 0.00 0.00 0.00 65 1011.9
20260503230122 12 103 1.6 3.2 0.00 0.00 0.00 64 1012.0
20260503224622 12 315 4.8 4.8 0.00 0.00 0.00 63 1012.0
20260503223120 13 109 0.0 3.2 0.00 0.00 0.00 60 1011.8
20260503221619 13 91 3.2 6.4 0.00 0.00 0.00 59 1011.7
20260503220115 15 94 1.6 3.2 0.00 0.00 0.00 42 1011.4
20260503214613 16 328 4.8 6.4 0.00 0.00 0.00 40 1011.4
20260503213110 15 89 1.6 9.7 0.00 0.00 0.00 41 1011.5
20260503211608 16 285 6.4 9.7 0.00 0.00 0.00 41 1011.6
20260503204558 16 251 1.6 3.2 0.00 0.00 0.00 42 1011.7
20260503203055 16 92 3.2 4.8 0.00 0.00 0.00 39 1012.1
20260503201554 17 167 1.6 9.7 0.00 0.00 0.00 38 1012.1
20260503200050 16 130 3.2 4.8 0.00 0.00 0.00 39 1012.5
20260503194547 17 175 1.6 3.2 0.00 0.00 0.00 37 1012.7
20260503193044 17 133 3.2 4.8 0.00 0.00 0.00 37 1012.5
20260503191539 17 310 1.6 3.2 0.00 0.00 0.00 38 1013.0
20260503190036 17 157 6.4 12.9 0.00 0.00 0.00 37 1013.5
20260503184534 17 273 1.6 1.6 0.00 0.00 0.00 39 1013.3
20260503183031 16 75 4.8 12.9 0.00 0.00 0.00 41 1013.6
20260503181529 17 295 0.0 4.8 0.00 0.00 0.00 40 1013.7
20260503180026 17 39 4.8 6.4 0.00 0.00 0.00 39 1013.9
20260503174524 17 276 3.2 4.8 0.00 0.00 0.00 39 1013.9
20260503173023 16 298 6.4 9.7 0.00 0.00 0.00 41 1014.1
20260503171520 -17 0.0 0.0 0.00 0.00 0.00 1014.3